Weather Roundup
Issued by NWS

Home | Current Version | Previous Version | Graphics & Text | Print | Product List | Glossary Off
Versions: 1 2 3 4 5 6 7 8 9 10 11 12 13 14 15 16 17 18 19 20 21 22 23 24 25 26 27 28 29 30 31 32 33 34 35 36 37 38 39 40 41 42 43 44 45 46 47 48 49 50

000
NZUS93 KARX 231210
HRRWXR

CURRENT HOURLY OBSERVATIONS ACROSS
MUCH OF THE UPPER MISSISSIPPI VALLEY
NATIONAL WEATHER SERVICE LA CROSSE WI
700 AM CDT SAT SEP 23 2017


...SOUTHEAST MINNESOTA...


CITY           SKY/WX    TMP DP  RH WIND       PRES   REMARKS
ROCHESTER      CLEAR     68  65  90 S7        30.00R
ROCHESTER/MAYO FAIR      71  67  86 SE7       29.99R
WINONA         CLEAR     70  66  88 SE3       29.99S
AUSTIN         CLEAR     68  64  88 S6        29.99R
ALBERT LEA     CLEAR     72  68  88 S6        29.98R
DODGE CENTER   CLEAR     72  64  78 S12       29.98R
PRESTON        CLEAR     66  63  90 S6        30.02S
OWATONNA       CLEAR     72  66  83 S13G18    29.95R
FARIBAULT      CLEAR     72  66  83 S7        29.95R
$$

...ELSEWHERE IN MINNESOTA...


CITY           SKY/WX    TMP DP  RH WIND       PRES   REMARKS
MINNEAPOLIS    MOCLDY    74  69  85 SE5       29.92R
INTNL FALLS    CLOUDY    62  61  96 W12       29.82F FOG
DULUTH         CLOUDY    68  67  96 VRB3      29.89F
RED WING       PTCLDY    73  64  73 CALM      29.94R
REDWOOD FALLS  CLOUDY    66  62  87 NW10      29.93R
MANKATO        CLEAR     71  67  87 S7        29.94
WORTHINGTON    MOCLDY    72  67  84 SW10G18   29.94R
FAIRMONT       CLEAR     70  67  90 S10       29.94R
$$

...SOUTHWEST WISCONSIN...


CITY           SKY/WX    TMP DP  RH WIND       PRES   REMARKS
LA CROSSE      CLEAR     72  66  81 SE6       30.00R
PRAIRIE DU CHI CLEAR     67  62  82 SE5       30.03R
BOSCOBEL       PTCLDY    64  62  93 CALM      30.04R FOG
LONE ROCK      CLEAR     64  62  93 CALM      30.05R FOG
PLATTEVILLE    CLEAR     68  66  93 SE7       30.06R
FORT MC COY    CLEAR     65  63  93 CALM      30.04R
CAMP DOUGLAS   CLEAR     65  64  99 S8        30.04R
MAUSTON-NEW LI SUNNY     65  63  94 CALM      30.04R
VIROQUA        FAIR      69  65  88 CALM      30.05R
WIS DELLS      CLEAR     67  61  80 CALM      30.06R
$$

...ELSEWHERE IN WISCONSIN...


CITY           SKY/WX    TMP DP  RH WIND       PRES   REMARKS
MILWAUKEE      PTCLDY    75  65  70 SW6       30.06R
MADISON        PTCLDY    66  62  87 CALM      30.06R
GREEN BAY      CLEAR     67  66  97 CALM      30.04R
EAU CLAIRE     CLEAR     72  66  81 S8        29.96F
BLACK RVR FLS  FAIR      60  60 100 CALM      30.01S FOG
MEDFORD        CLEAR     64  62  95 S8        30.03S
WAUSAU         CLEAR     67  65  93 S6        30.03S
WIS RAPIDS     CLEAR     68  64  87 CALM      30.06R
MARSHFIELD     CLEAR     65  61  87 S5        30.04S
RICE LAKE      CLEAR     69  65  88 CALM      29.98R
$$

...NORTHEAST IOWA...


CITY           SKY/WX    TMP DP  RH WIND       PRES   REMARKS
WATERLOO       CLEAR     66  63  90 SE3       30.00R
DUBUQUE        CLEAR     66  62  87 S6        30.05R
DECORAH        CLEAR     70  64  83 S6        30.01S
MASON CITY     CLEAR     66  64  93 S6        30.01R
CHARLES CITY   CLEAR     68  68 100 S5        30.02R
OELWEIN        CLEAR     64  64 100 S6        30.03R
$$

...ELSEWHERE IN IOWA...


CITY           SKY/WX    TMP DP  RH WIND       PRES   REMARKS
DES MOINES     PTCLDY    71  67  87 S7        29.99R
IOWA CITY      CLEAR     66  62  87 CALM      30.04R
FORT DODGE     CLEAR     71  67  87 S8        29.98R
MARSHALLTOWN   CLEAR     68  66  93 SE6       30.00R
CEDAR RAPIDS   CLEAR     67  63  87 SE5       30.02R
$$

...NORTHERN ILLINOIS...


CITY           SKY/WX    TMP DP  RH WIND       PRES   REMARKS
CHICAGO-OHARE  PTCLDY    74  65  73 CALM      30.07R
CHICAGO-MIDWAY PTCLDY    76  66  71 S6        30.07R
MOLINE         CLEAR     66  62  87 CALM      30.03R
ROCKFORD       CLEAR     68  63  84 CALM      30.08R
PEORIA         CLEAR     69  66  90 CALM      30.06R
$$

NOTE: "FAIR" INDICATES FEW OR NO CLOUDS BELOW 12,000 FEET WITH NO
SIGNIFICANT WEATHER AND/OR OBSTRUCTIONS TO VISIBILITY. WIND
SPEEDS ARE IN MILES-PER-HOUR.




USA.gov is the U.S. government's official web portal to all federal, state and local government web resources and services.